SCP
0 0 -0 -0 -0 0 0 0 0 0 0 0 0 0 0 0 0 0 0 0 0 0 0 0 0 0 0 0 0 0 0 0 0 0 0 0 0 0 0 0 0 0 0
0 0 0 -0 -0 0 0 0 0 0 0 0 0 0 0 0 0 0 0 0 0 0 0 0 0 0 0 0 0 0 0 0 0 0 0 0 0 0 0 0 0 0 0
0 0 0 0 0 0 0 0 0 0 0 0 0 0 0 0 0 0 0 0 0 0 0 0 0 0 0 0 0 0 0 0 0 0 0 0 0 0 0 0 0 0 0
0 0 0 0 0 0 0 0 0 0 0 0 0 0 0 0 0 0 0 0 0 0 0 0 0 0 0 0 0 0 0 0 0 0 0 0 0 0 0 0 0 0 0
0 0 0 0 0 0 0 0 0 0 0 0 0 0 0 0 0 0 0 0 0 0 0 0 0 0 0 0 0 0 0 0 0 0 0 0 0 0 0 0 0 0 0
0 0 0 0 0 0 0 0 0 0 0 0 0 0 0 0 0 0 0 0 0 0 0 0 0 0 0 0 0 0 0 0 0 0 0 0 0 0 0 0 0 0 0
0 0 0 0 0 0 0 0 0 0 0 0 0 0 0 0 0 0 0 0 0 0 0 0 0 0 0 0 0 0 0 0 0 0 0 0 0 0 0 0 0 0 0
0 0 0 0 0 0 0 0 0 0 0 0 0 0 0 0 0 0 0 0 0 0 0 0 0 0 0 0 0 0 0 0 0 0 0 0 0 0 0 0 0 0 0
0 0 0 0 0 0 0 0 0 0 0 0 0 0 0 0 0 0 0 0 0 0 0 0 0 0 0 0 0 0 0 0 0 0 0 0 0 0 0 0 0 0 0
0 0 0 0 0 0 0 0 0 0 0 0 0 0 0 0 0 0 0 0 0 0 0 0 0 0 0 0 0 0 0 0 0 0 0 0 0 0 0 0 0 0 0
0 0 0 0 0 0 0 0 0 0 0 0 0 0 0 0 0 0 0 0 0 0 0 0 0 0 0 0 0 0 0 0 0 0 0 0 0 0 0 0 0 0 0
0 0 0 0 0 0 0 0 0 0 0 0 0 0 0 0 0 0 0 0 0 0 0 0 0 0 0 0 0 0 0 0 0 0 0 0 0 0 0 0 0 0 0
0 0 0 0 -0 -0 0 0 0 0 0 0 0 0 0 0 0 0 0 0 0 0 0 0 0 0 0 0 0 0 0 0 0 0 0 0 0 0 0 0 0 0 0
0 0 0 0 -0 -0 -0 -0 -0 -0 0 0 0 0 0 0 0 0 0 0 0 0 0 0 0 0 0 0 0 0 0 0 0 0 0 0 0 0 0 0 0 0 0
0 0 0 0 0 0 0 -0 -0 0 0 0 0 0 0 0 0 0 0 0 0 0 0 0 0 0 0 0 0 0 0 0 0 0 0 0 0 0 0 0 0 0 0
0 0 0 0 0 0 0 -0 -0 0 0 -0 -0 0 0 0 0 0 0 0 0 0 0 0 0 0 0 0 0 0 0 0 0 0 0 0 0 0 0 0 0 0 0
0 0 0 0 0 0 0 -0 -0 -0 -0 -0 -0 0 0 0 0 0 0 0 0 0 0 0 0 0 0 0 0 0 0 0 0 0 0 0 0 0 0 0 0 0 0
0 0 0 0 0 0 0 0 -0 -0 -0 -0 0 0 0 0 0 0 0 0 0 0 0 0 0 0 0 0 0 0 0 0 0 0 0 0 0 0 0 0 0 0 0
0 0 0 0 0 0 0 0 0 0 0 0 0 0 0 0 0 0 0 0 0 0 0 0 0 0 0 0 0 0 0 0 0 0 0 0 0 0 0 0 0 0 0
1 1 1 1 0 0 0 0 0 0 0 0 0 0 0 0 0 0 0 0 0 0 0 0 0 0 0 0 0 0 0 0 0 0 0 0 0 0 0 0 0 0 0
1 1 1 1 1 1 0 0 0 0 0 0 0 0 0 0 0 0 0 0 0 0 0 0 0 0 0 0 0 0 0 0 0 0 0 0 0 0 0 0 0 0 0
1 1 1 1 1 1 1 0 0 0 0 0 0 0 0 0 0 0 0 0 0 0 0 0 0 0 0 0 0 0 0 0 0 0 0 0 0 0 0 0 0 0 0
1 1 1 1 1 1 1 1 1 0 0 0 0 0 1 1 1 0 0 0 0 0 0 0 0 0 0 0 0 0 0 0 0 0 0 0 0 0 0 0 0 0 0
1 1 1 1 1 1 1 1 1 1 1 0 1 1 1 1 1 1 1 1 1 0 0 0 0 0 0 0 0 0 0 0 0 0 0 0 0 0 0 0 0 0 0
1 1 1 1 1 1 1 1 1 1 1 1 1 1 1 1 1 1 1 1 1 1 1 0 0 0 0 0 0 0 0 0 0 0 0 0 0 0 0 0 0 0 0
1 1 1 1 1 1 1 1 1 1 1 1 1 1 1 1 1 1 1 1 1 1 1 1 1 1 0 0 0 0 0 0 0 0 0 0 0 0 0 0 0 0 0
Wind_Speed
8 12 13 12 11 10 11 11 11 10 10 10 9 8 9 9 9 9 10 10 10 9 9 8 8 7 6 6 6 7 7 7 7 7 7 7 7 6 5 5 5 6 9
11 12 13 12 11 11 11 11 11 10 10 10 9 8 8 9 8 8 9 9 9 8 8 7 7 7 7 7 7 7 7 7 7 7 7 7 6 5 5 4 4 5 8
12 12 11 11 11 11 11 11 10 9 9 9 8 8 8 8 8 8 8 8 8 8 7 7 7 7 7 6 6 6 6 6 7 7 7 5 6 6 6 6 7 7 7
12 11 12 12 11 10 10 10 9 9 8 8 8 7 7 8 8 7 7 7 7 7 7 7 6 6 6 5 5 5 5 5 6 6 5 4 5 8 8 7 7 6 7
12 13 13 13 11 10 10 9 8 8 7 7 7 7 7 7 7 7 7 7 7 7 7 7 6 5 5 4 4 4 5 5 5 5 4 2 4 8 9 8 7 7 7
12 13 13 13 11 11 10 9 9 8 7 7 7 7 7 7 7 7 7 7 7 7 7 6 5 5 4 3 4 4 4 4 4 4 3 3 5 8 9 8 8 7 7
10 12 13 13 12 11 11 9 9 8 7 7 7 7 7 7 7 7 7 7 7 7 6 6 6 5 4 4 4 4 4 4 4 3 2 3 6 10 9 9 8 7 7
9 10 12 13 13 12 11 10 9 8 7 7 7 7 7 7 7 7 7 7 7 7 6 6 5 5 5 4 4 4 5 5 4 3 2 3 8 10 10 9 8 8 7
9 8 9 11 11 11 11 10 9 8 7 7 7 7 8 8 7 7 7 7 7 7 6 6 5 5 5 5 5 6 6 6 5 3 2 3 8 10 10 10 9 9 8
7 7 8 8 8 8 9 10 9 8 7 7 7 7 8 8 8 8 7 7 7 7 6 6 6 6 6 6 6 7 8 7 5 4 2 5 10 11 11 10 9 9 9
6 6 6 7 6 6 6 9 8 8 7 7 6 7 7 5 6 6 7 8 8 8 7 7 7 7 7 7 8 9 8 4 5 3 2 7 10 11 11 9 9 9 9
6 5 5 6 5 4 4 5 4 5 5 4 4 5 5 4 3 5 8 10 10 9 9 9 8 8 7 4 7 9 4 5 5 2 4 10 11 11 10 9 9 9 9
6 5 5 5 4 3 2 3 2 2 3 3 3 4 3 3 3 4 4 5 6 8 6 6 7 5 4 3 3 4 5 4 2 2 5 10 10 10 10 9 9 8 8
6 5 5 5 4 3 2 1 2 2 2 2 3 3 3 2 2 2 2 3 3 3 3 3 3 4 4 3 3 3 3 1 1 2 5 10 10 10 10 9 9 8 8
6 5 5 5 4 3 2 0 1 1 2 3 3 2 2 2 2 2 1 2 2 2 2 2 2 2 2 2 2 2 1 1 1 2 3 9 10 10 10 9 9 9 8
6 6 5 5 5 3 2 0 1 1 2 2 3 3 2 1 2 2 2 1 1 2 2 2 3 2 2 1 2 1 1 1 2 3 4 6 9 9 9 9 9 8 8
6 6 6 6 5 3 2 1 1 1 2 2 2 3 3 2 2 2 2 1 1 2 2 2 2 1 2 2 2 2 1 2 1 2 3 4 6 8 9 9 9 8 8
6 5 4 5 6 4 2 1 0 1 1 2 2 3 3 2 2 2 2 1 1 1 2 2 2 1 1 1 1 1 1 1 1 1 3 4 4 4 7 9 9 8 8
6 6 5 4 4 4 3 2 1 1 1 1 2 2 3 3 2 2 2 1 2 1 1 2 2 1 1 1 1 2 1 1 1 1 2 3 4 4 4 7 9 8 8
8 6 6 5 3 3 3 2 1 1 1 1 1 2 3 2 2 2 2 2 1 1 1 1 1 2 2 2 2 2 1 1 1 1 2 2 3 4 5 5 5 6 7
8 6 5 5 4 2 2 1 1 1 1 1 1 3 2 2 2 1 1 2 1 1 1 2 2 3 2 2 1 1 1 2 2 1 2 2 3 3 4 5 4 3 4
8 7 5 5 4 3 3 2 1 1 1 1 1 2 2 2 1 1 1 1 1 1 2 2 1 1 2 2 1 1 1 1 0 1 2 3 3 3 2 4 4 4 3
7 7 6 5 4 3 3 2 1 1 1 1 1 1 2 2 2 1 2 0 1 1 1 1 1 2 1 1 1 1 1 1 0 0 1 2 3 2 2 2 2 4 4
9 8 6 5 4 4 3 2 2 2 1 1 1 1 2 2 2 2 2 1 0 0 1 1 1 1 1 1 0 0 0 0 0 0 1 1 2 2 2 1 1 2 3
9 9 8 6 4 4 3 2 1 1 1 1 1 2 1 1 1 1 1 1 1 0 0 1 0 1 1 1 1 0 0 1 1 1 1 1 1 1 2 2 2 2 2
8 8 9 7 5 5 4 4 3 2 1 1 1 1 2 1 1 1 1 1 1 1 1 1 0 1 1 1 1 0 0 1 1 1 1 1 1 1 2 2 2 2 2
Wind_Direction
109 111 118 115 114 116 117 118 119 120 123 123 124 124 126 124 121 119 118 120 123 124 125 127 130 134 136 133 130 126 124 123 124 125 125 123 124 125 127 132 144 122 118
111 113 117 116 115 116 116 120 122 123 125 127 128 129 132 130 127 124 122 125 127 129 129 132 136 138 135 132 131 129 131 136 140 144 144 137 137 138 134 127 123 120 125
113 117 117 115 116 116 117 119 124 124 127 131 132 130 132 135 132 128 127 129 130 133 134 135 133 134 136 135 137 142 147 154 160 167 174 163 149 153 149 138 130 132 136
116 118 117 118 118 120 124 125 125 126 128 132 136 136 136 139 139 139 139 138 137 138 139 138 135 138 142 145 151 161 172 180 186 191 202 185 161 153 155 150 144 145 147
113 114 118 123 121 122 124 130 130 127 129 133 137 139 142 144 147 150 148 146 144 143 141 143 144 145 146 151 162 179 194 197 205 218 221 171 135 150 155 156 157 158 159
115 118 124 127 128 130 129 128 130 130 131 134 136 141 144 149 154 155 154 153 150 145 142 146 147 150 153 159 172 188 205 209 220 226 221 162 140 154 157 159 163 167 167
111 119 129 133 135 136 135 134 134 134 133 135 139 142 145 148 150 152 150 151 150 147 149 152 157 162 168 183 197 207 218 223 231 230 202 131 138 152 159 163 166 170 173
112 121 133 139 140 142 142 141 141 140 139 142 147 151 151 152 151 149 153 154 152 153 156 158 163 173 186 204 217 226 235 242 233 239 187 138 149 156 162 166 171 177 181
105 113 135 144 145 147 149 149 147 146 145 152 157 159 160 160 158 157 160 163 162 164 169 172 177 188 201 216 230 237 239 245 254 252 205 147 153 160 169 174 179 183 187
105 116 124 134 141 150 154 157 155 156 156 163 168 171 172 170 170 171 168 169 174 179 184 183 188 200 210 223 236 244 251 254 240 235 181 155 161 162 168 177 185 189 193
104 111 120 127 138 149 149 148 159 167 167 171 175 180 181 182 181 180 175 177 183 190 196 197 202 208 216 227 240 245 250 238 236 212 157 160 166 165 168 173 182 193 197
110 110 109 115 121 124 127 136 164 167 164 177 166 172 180 184 177 173 171 181 189 197 206 210 213 219 219 222 232 233 238 231 232 204 161 162 166 169 174 181 185 189 194
116 108 108 101 96 106 107 134 157 155 154 169 163 165 169 175 175 175 170 181 195 202 211 209 214 221 217 217 221 213 225 228 205 175 153 161 168 171 176 184 188 192 198
116 114 115 113 104 93 92 108 137 141 153 159 154 165 172 179 177 169 173 172 187 199 202 208 214 217 216 218 220 231 230 231 166 147 158 168 173 174 178 182 186 191 197
124 120 111 115 112 101 78 12 121 125 155 160 143 160 170 166 163 165 169 170 188 190 193 204 219 229 219 223 228 233 234 237 195 167 153 165 170 176 181 187 188 191 198
133 134 121 118 113 108 116 123 50 130 145 138 130 139 158 149 138 154 164 174 202 190 195 196 198 212 226 212 206 220 240 217 209 175 164 169 176 181 184 187 189 191 195
142 138 135 131 125 118 136 167 147 192 142 142 133 137 149 159 151 172 159 177 200 184 187 188 196 194 208 207 197 199 223 252 223 188 171 168 172 183 186 188 189 189 191
138 130 131 133 129 134 140 150 160 94 91 119 130 129 144 155 159 154 156 190 201 194 190 173 174 178 202 221 199 218 216 213 233 193 165 160 167 169 181 185 183 185 186
137 131 128 119 127 133 143 169 158 103 94 102 112 122 139 158 168 161 168 186 198 182 175 195 148 168 202 212 209 215 220 188 183 193 152 157 164 159 155 170 180 181 181
142 138 138 134 134 146 149 149 143 112 114 107 110 118 124 151 161 171 166 178 199 167 173 173 156 180 210 219 228 207 204 183 163 175 175 158 157 161 161 157 167 177 179
141 144 148 149 148 143 143 150 160 153 152 127 118 109 118 130 130 158 146 165 195 171 182 191 194 205 208 208 215 240 239 221 177 165 163 155 148 149 153 153 155 155 164
150 149 152 158 156 159 148 148 177 185 162 137 91 116 122 118 125 153 114 177 182 171 179 203 211 238 241 204 210 231 227 228 236 175 151 160 144 136 136 144 149 153 160
158 161 165 160 155 168 166 171 175 166 179 154 141 145 138 146 144 107 124 154 201 181 156 202 215 216 244 253 222 201 216 207 344 134 175 137 134 131 129 125 147 160 165
165 163 153 156 162 168 172 180 183 161 164 175 149 133 142 156 157 151 149 171 208 173 141 224 170 239 224 251 270 158 204 147 172 353 6 105 127 132 148 149 142 164 162
168 162 158 155 165 168 181 184 185 201 181 136 114 133 159 145 161 147 146 155 159 214 173 281 91 290 264 258 264 227 244 256 226 197 215 176 142 154 161 165 165 180 174
169 163 154 153 164 175 186 185 187 201 191 158 172 178 182 161 173 160 139 144 191 212 196 220 230 261 291 322 314 307 238 226 210 208 235 229 197 200 176 173 184 185 184